2023/02/01 00:00:00,47.3,-3.7
2023/02/01 00:10:00,47.3,-3.5
2023/02/01 00:20:00,47.2,-2.9
2023/02/01 00:30:00,47.2,-2.9
2023/02/01 00:40:00,47.2,-3.1
2023/02/01 00:50:00,47.1,-2.9
2023/02/01 01:00:00,47.1,-3.3
2023/02/01 01:10:00,47.1,-3.1
2023/02/01 01:20:00,46.9,-3.2
2023/02/01 01:30:00,46.9,-3.2
2023/02/01 01:40:00,46.8,-3.4
2023/02/01 01:50:00,46.8,-3.5
2023/02/01 02:00:00,46.7,-3.3
2023/02/01 02:10:00,46.6,-3.2
2023/02/01 02:20:00,46.5,-3.7
2023/02/01 02:30:00,46.5,-3.8
2023/02/01 02:40:00,46.6,-3.1
2023/02/01 02:50:00,46.5,-3.7
2023/02/01 03:00:00,46.5,-3.6
2023/02/01 03:10:00,46.7,-3.1
2023/02/01 03:20:00,46.7,-3.3
2023/02/01 03:30:00,46.6,-3.2
2023/02/01 03:40:00,46.4,-3.2
2023/02/01 03:50:00,46.2,-3.2
2023/02/01 04:00:00,46.2,-3.4
2023/02/01 04:10:00,46.2,-3.5
2023/02/01 04:20:00,46.1,-2.9
2023/02/01 04:30:00,46.1,-3.2
2023/02/01 04:40:00,46.2,-3.5
2023/02/01 04:50:00,46.2,-3.9
2023/02/01 05:00:00,46.3,-3.2
2023/02/01 05:10:00,46.3,-3.2
2023/02/01 05:20:00,46.4,-3.2
2023/02/01 05:30:00,46.5,-2.8
2023/02/01 05:40:00,46.4,-3.0
2023/02/01 05:50:00,46.3,-3.2
2023/02/01 06:00:00,46.2,-3.8
2023/02/01 06:10:00,46.2,-3.3
2023/02/01 06:20:00,46.2,-3.1
2023/02/01 06:30:00,46.2,-3.2
2023/02/01 06:40:00,46.2,-2.9
2023/02/01 06:50:00,46.1,-2.2
2023/02/01 07:00:00,46.0,-2.4
2023/02/01 07:10:00,46.0,-1.9
2023/02/01 07:20:00,45.9,-1.9
2023/02/01 07:30:00,45.8,-1.5
2023/02/01 07:40:00,45.8,-0.8
2023/02/01 07:50:00,45.8,-0.9
2023/02/01 08:00:00,45.6,-1.1
2023/02/01 08:10:00,45.7,-0.6
2023/02/01 08:20:00,45.7,-0.4
2023/02/01 08:30:00,45.7,-0.1
2023/02/01 08:40:00,45.6, 0.9
2023/02/01 08:50:00,45.5, 2.0
2023/02/01 09:00:00,45.2, 2.7
2023/02/01 09:10:00,45.3, 1.9
2023/02/01 09:20:00,45.3, 2.0
2023/02/01 09:30:00,45.2, 2.2
2023/02/01 09:40:00,45.1, 2.6
2023/02/01 09:50:00,44.9, 3.0
2023/02/01 10:00:00,44.9, 3.8
2023/02/01 10:10:00,44.8, 4.6
2023/02/01 10:20:00,44.7, 4.6
2023/02/01 10:30:00,44.3, 9.2
2023/02/01 10:40:00,---,10.4
2023/02/01 10:50:00,44.0, 6.2
2023/02/01 11:00:00,44.4, 4.8
2023/02/01 11:10:00,44.6, 2.4
2023/02/01 11:20:00,44.5, 2.7
2023/02/01 11:30:00,43.9, 7.2
2023/02/01 11:40:00,44.0, 6.1
2023/02/01 11:50:00,19.2, 7.3
2023/02/01 12:00:00,10.9, 8.4
2023/02/01 12:10:00,43.6, 6.1
2023/02/01 12:20:00,43.6, 4.3
2023/02/01 12:30:00,44.0, 2.6
2023/02/01 12:40:00,44.1, 2.4
2023/02/01 12:50:00,44.1, 1.7
2023/02/01 13:00:00,43.8, 2.0
2023/02/01 13:10:00,43.6, 3.2
2023/02/01 13:20:00,18.6, 8.8
2023/02/01 13:30:00,42.8, 7.7
2023/02/01 13:40:00, 0.0, 8.5
2023/02/01 13:50:00, 0.0,11.2
2023/02/01 14:00:00,---, 8.0
2023/02/01 14:10:00,42.4, 7.3
2023/02/01 14:20:00,17.6, 8.2
2023/02/01 14:30:00,---, 7.7
2023/02/01 14:40:00,42.0, 6.3
2023/02/01 14:50:00,42.0, 6.6
2023/02/01 15:00:00,42.0, 6.3
2023/02/01 15:10:00,42.1, 4.8
2023/02/01 15:20:00,42.2, 4.2
2023/02/01 15:30:00,42.1, 4.1
2023/02/01 15:40:00,42.1, 4.3
2023/02/01 15:50:00,42.1, 4.2
2023/02/01 16:00:00,42.2, 2.9
2023/02/01 16:10:00,42.2, 2.4
2023/02/01 16:20:00,42.1, 2.5
2023/02/01 16:30:00,42.1, 3.1
2023/02/01 16:40:00,42.2, 2.7
2023/02/01 16:50:00,42.7, 2.4
2023/02/01 17:00:00,42.0, 1.8
2023/02/01 17:10:00,42.0, 1.8
2023/02/01 17:20:00,42.0, 1.6
2023/02/01 17:30:00,41.7, 1.3
2023/02/01 17:40:00,41.4, 1.1
2023/02/01 17:50:00,41.3, 0.8
2023/02/01 18:00:00,40.9, 1.0
2023/02/01 18:10:00,40.7, 1.1
2023/02/01 18:20:00,40.5, 1.2
2023/02/01 18:30:00,40.4, 1.1
2023/02/01 18:40:00,40.3, 0.6
2023/02/01 18:50:00,40.0, 0.7
2023/02/01 19:00:00,39.9, 0.0
2023/02/01 19:10:00,40.0, 0.7
2023/02/01 19:20:00,39.9, 0.4
2023/02/01 19:30:00,39.6, 0.4
2023/02/01 19:40:00,39.6, 0.5
2023/02/01 19:50:00,39.9, 0.9
2023/02/01 20:00:00,40.2, 0.7
2023/02/01 20:10:00,40.0, 0.3
2023/02/01 20:20:00,40.0, 0.5
2023/02/01 20:30:00,40.0, 0.4
2023/02/01 20:40:00,40.0, 0.4
2023/02/01 20:50:00,39.8, 0.7
2023/02/01 21:00:00,39.5, 0.5
2023/02/01 21:10:00,39.5, 0.3
2023/02/01 21:20:00,39.5, 0.5
2023/02/01 21:30:00,39.4, 0.5
2023/02/01 21:40:00,39.3, 0.8
2023/02/01 21:50:00,39.4, 1.4
2023/02/01 22:00:00,39.3, 1.0
2023/02/01 22:10:00,39.4, 1.0
2023/02/01 22:20:00,39.2, 1.0
2023/02/01 22:30:00,39.0, 0.6
2023/02/01 22:40:00,39.1, 0.9
2023/02/01 22:50:00,39.0, 0.4
2023/02/01 23:00:00,38.7, 0.6
2023/02/01 23:10:00,38.6, 0.8
2023/02/01 23:20:00,38.5, 1.1
2023/02/01 23:30:00,38.5, 0.8
2023/02/01 23:40:00,38.4, 0.8
2023/02/01 23:50:00,38.3, 0.9
